Regional Weather Roundup
Issued by NWS Sterling, VA

Home | Current Version | Previous Version | Text Only | Print | Product List | Glossary On
Versions: 1 2 3 4 5 6 7 8 9 10 11 12 13 14 15 16 17 18 19 20 21 22 23 24 25 26 27
000
ASUS41 KLWX 282210
RWRLWX

REGIONAL WEATHER ROUNDUP
NATIONAL WEATHER SERVICE BALTIMORE MD/WASHINGTON DC
600 PM EDT SAT MAY 28 2016

Note: "FAIR" indicates few or no clouds below 12,000 feet
with no significant weather and/or obstructions to visibility.
 TC=TEMPERATURE CELSIUS

 * =Non NWS site. Station does not report precipitation (e.g. rain,
    snow, etc.), thunder, or fog.

DCZ001-MDZ009-015-VAZ040>042-051-053>054-282300-
WASHINGTON METRO

CITY           SKY/WX    TMP DP  RH WIND       PRES   REMARKS
WASHINGTON NAT FAIR      84  67  56 S13       30.09F
DULLES         FAIR      86  63  45 SE12      30.09F
ANDREWS AFB    SUNNY     85  65  50 S9        30.10S
FT BELVOIR     FAIR      86  66  51 SE12      30.10S
QUANTICO       FAIR      82  68  62 S12       30.10S
COLLEGE PARK*  FAIR      88  61  40 S3        30.09S
LEESBURG*      FAIR      90  64  43 S16       30.10S HX  91
MANASSAS*      SUNNY     88  63  42 S10       30.09F

$$

MDZ006>007-011-014-282300-
BALTIMORE METRO

CITY           SKY/WX    TMP DP  RH WIND       PRES   REMARKS
BWI AIRPORT    MOSUNNY   83  65  54 SE12      30.09S
MD SCIENCE CTR   N/A     85  64  49 MISG      30.10S
MARTIN STATE   SUNNY     82  72  69 S15       30.11F
ANNAPOLIS      SUNNY     79  61  53 S10       30.11F
FORT MEADE*    SUNNY     82  64  54 SE12      30.12R

$$

MDZ012-015-019>023-282300-
MARYLAND EASTERN SHORE

CITY           SKY/WX    TMP DP  RH WIND       PRES   REMARKS
OCEAN CITY     SUNNY     73  64  73 S6        30.15F
SALISBURY      SUNNY     83  51  33 S9        30.13F
BAY BRIDGE AP* SUNNY     82  63  51 S12       30.11S
CAMBRIDGE*     SUNNY     81  55  41 S8        30.12F
EASTON*        SUNNY     84  66  54 S8        30.16F

$$

MDZ017>025-282300-
SOUTHERN MARYLAND

CITY           SKY/WX    TMP DP  RH WIND       PRES   REMARKS
PATUXENT RIVER MOSUNNY   79  58  48 SE9       30.12F
ST INIGOES     SUNNY     82  52  35 SE7       30.12F
LEONARDTOWN*   SUNNY     81  59  47 SE8       30.14S

$$

MDZ003>005-282300-
NORTH CENTRAL MARYLAND

CITY           SKY/WX    TMP DP  RH WIND       PRES   REMARKS
FREDERICK*     SUNNY     90  70  51 S10       30.11S HX  95
HAGERSTOWN APT PTSUNNY   89  65  44 S13       30.08F HX  91
WESTMINSTER*   SUNNY     91  84  79 S9        30.10S HX 118

$$

MDZ501>502-282300-
WESTERN MARYLAND

CITY           SKY/WX    TMP DP  RH WIND       PRES   REMARKS
OAKLAND*       NOT AVBL
CUMBERLAND*    SUNNY     88  64  45 SE6       30.10S

$$

VAZ025>031-282300-
SHENANDOAH VALLEY

CITY           SKY/WX    TMP DP  RH WIND       PRES   REMARKS
WINCHESTER*    FAIR      86  63  45 S8        30.10S
FRONT ROYAL*   FAIR      84  64  51 S5        30.09S
LURAY*         FAIR      86  63  45 S3        30.11S
NEW MARKET*    FAIR      83  64  52 S7        30.09S
STAUNTON*      FAIR      82  62  51 S3        30.15S
WAYNESBORO*    FAIR      82  61  49 SE8       30.15S

$$

WVZ021-048>050-054>055-282300-
EASTERN WEST VIRGINIA PANHANDLE

CITY           SKY/WX    TMP DP  RH WIND       PRES   REMARKS
MARTINSBURG    FAIR      86  65  49 SE10      30.07F
PETERSBURG*    FAIR      87  65  49 SE10      30.09F

$$

VAZ036>039-050-282300-
CENTRAL FOOTHILLS

CITY           SKY/WX    TMP DP  RH WIND       PRES   REMARKS
CHARLOTTESVILL FAIR      85  61  44 S10       30.11F
CULPEPER*      FAIR      86  65  49 S6        30.11R
ORANGE*        FAIR      86  63  45 NE5       30.13S
GORDONSVILLE*  FAIR      86  63  45 S5        30.11S
WARRENTON*     FAIR      87  57  36 S3        30.10S

$$

VAZ055>057-282300-
NORTH AND CENTRAL PIEDMONT

CITY           SKY/WX    TMP DP  RH WIND       PRES   REMARKS
FREDERICKSBRG* FAIR      88  64  44 S9        30.09S
STAFFORD*      FAIR      85  61  43 S5        30.14S

$$

NCZ024-NYZ072-PAZ021-071-VAZ022-071-282300-
OTHER REGIONAL OBSERVATIONS

CITY           SKY/WX    TMP DP  RH WIND       PRES   REMARKS
NEW YORK CITY  PTSUNNY   86  65  49 VRB3      30.10R
PHILADELPHIA   MOSUNNY   88  65  46 S12       30.10S HX  90
PITTSBURGH     MOSUNNY   88  61  40 W8        30.08S
ROANOKE        FAIR      80  61  52 SE9       30.16S
RICHMOND       PTSUNNY   84  56  38 S10       30.12F
RALEIGH        MOSUNNY   86  59  39 E9        30.12S

$$

ANZ530>537-282300-
MARINE OBSERVATIONS

STATION/POSITION TIME  TEMP    WIND        PRES
                       AIR SEA DIR/SP/G
                 (UTC) (F)     (DEG/KT/KT) (MB)
THOMAS PT LIGHT  2200   75 67  170/ 14/ 14 1020.8F
BALT KEY BRIDGE  2100   80     140/ 16/ 18 1018.8F
COVE POINT       2100   71     190/ 14/ 15 1020.9F
LEWISETTA        2100   82 68  160/  9/ 11 1019.9F
SOLOMONS ISLAND  2100   77 68  130/ 12/ 13   N/A
PINEY POINT      2100          150/ 14/ 15   N/A

$$





USA.gov is the U.S. government's official web portal to all federal, state and local government web resources and services.